Location: Laas
(43.4693°N, 0.3073°E)
Time: 14:54:43
(UTC+00:00)

USA 308 - Pass Details

Date: 25 October 2020
Orbit: 571 x 578 km, 54.0° (Epoch: 23 November)

Event Time Altitude Azimuth Distance (km) Brightness Sun altitude
Rises 18:33:17 0° 307° (NW) 2,786 7.3 -17.7°
Reaches altitude 10° 18:35:50 10° 319° (NW) 1,885 6.1 -18.1°
Maximum altitude 18:39:31 27° 19° (NNE) 1,115 4.2 -18.8°
Enters shadow 18:40:06 26° 33° (NNE) 1,141 4.1 -18.9°
